Hurricane Symbol View the latest observations near East Pacific Tropical Storm Bud.

Station BISM2 - 8571421 - Bishops Head, MD Image indicating link to RSS feed of recent meteorological observations for station BISM2


Conditions at BISM2 as of
(8:30 pm EDT on 07/24/2024)
0030 GMT on 07/25/2024:
     

Click on the graph icon in the table below to see a time series plot of the last five days of that observation.

5-day plot - Wind Direction Wind Direction (WDIR): SW ( 220 deg true )
5-day plot - Wind Speed Wind Speed (WSPD): 7.0 kts
5-day plot - Wind Gust Wind Gust (GST): 8.9 kts
5-day plot - Atmospheric Pressure Atmospheric Pressure (PRES):30.11 in
5-day plot - Air Temperature Air Temperature (ATMP): 80.4 °F
5-day plot - Water Temperature Water Temperature (WTMP): 82.9 °F
5-day plot - Wind Speed at 10 Meters Wind Speed at 10 meters (WSPD10M): 7.8 kts
5-day plot - Wind Speed at 20 Meters Wind Speed at 20 meters (WSPD20M): 7.8 kts
5-day plot -  Wind Speed, Wind Gust and Atmospheric Pressure Combined plot of Wind Speed, Gust, and Air Pressure
NOS Water Level Observation Network Water Level
Previous observations
TIME
(EDT)
5-day plot - Wind Direction
WDIR
 
5-day plot - Wind Speed
WSPD
kts
5-day plot - Wind Gust
GST
kts
5-day plot - Wave Height
WVHT
ft
5-day plot - Dominant Wave Period
DPD
sec
5-day plot - Average Wave Period
APD
sec
5-day plot - Mean Wave Direction
MWD
 
5-day plot - Atmospheric Pressure
PRES
in
5-day plot - Pressure Tendency
PTDY
in
5-day plot - Air Temperature
ATMP
°F
5-day plot - Water Temperature
WTMP
°F
5-day plot - Dew Point
DEWP
°F
5-day plot - Salinity
SAL
psu
5-day plot - Visibility
VIS
nmi
5-day plot - Tide (above MLLW)
TIDE
ft
2024-07-24 08:24 pmSSW 8.0 8.9----30.11- 80.4 82.9----
2024-07-24 08:18 pmSSW 8.0 8.9----30.10- 80.4 82.9----
2024-07-24 08:12 pmSSW 8.0 8.9----30.10- 80.4 82.8----
2024-07-24 08:06 pmSSW 6.0 8.0----30.09- 80.6 82.8----
2024-07-24 08:00 pm S 7.0 8.0----30.10+0.00 80.6 82.8----
2024-07-24 07:54 pm S 7.0 8.0----30.10- 80.4 82.8----
2024-07-24 07:48 pm S 6.0 8.0----30.10- 80.4 82.8----
2024-07-24 07:42 pm S 7.0 8.0----30.10- 80.4 82.8----
2024-07-24 07:36 pm S 6.0 7.0----30.10- 80.4 82.8----
2024-07-24 07:30 pm S 5.1 7.0----30.10- 80.4 82.8----
2024-07-24 07:24 pm S 6.0 7.0----30.09- 80.6 82.8----
2024-07-24 07:18 pm S 6.0 7.0----30.09- 80.4 82.8----
2024-07-24 07:00 pm S 5.1 6.0----30.09-0.02 80.1 82.8----
2024-07-24 06:54 pm S 5.1 6.0----30.09- 79.7 82.8----
2024-07-24 06:48 pm S 6.0 6.0----30.08-- 82.8----
2024-07-24 06:42 pm S 5.1 6.0----30.08-- 82.8----
2024-07-24 06:36 pm S 4.1 5.1----30.08-- 82.8----
2024-07-24 06:30 pm S 2.9 2.9----30.08- 79.2 82.8----
2024-07-24 06:24 pmWSW 1.9 2.9----30.09- 79.0 82.8----
2024-07-24 06:18 pmWSW 1.9 2.9----30.09- 78.6 82.8----
2024-07-24 06:12 pmWNW 1.9 5.1----30.09- 78.4 82.8----
2024-07-24 06:06 pmWNW 5.1 5.1----30.09- 78.6 82.8----
2024-07-24 06:00 pmWSW 2.9 2.9----30.09-0.01 78.6 82.8----
2024-07-24 05:54 pmSSW 1.0 2.9----30.09- 78.4 82.8----
2024-07-24 05:48 pmWSW 2.9 2.9----30.09- 78.4 82.8----
2024-07-24 05:42 pm W 2.9 4.1----30.10- 78.3 82.9----
2024-07-24 05:36 pmWNW 4.1 5.1----30.10- 78.1 82.9----
2024-07-24 05:30 pmWNW 5.1 7.0----30.10- 78.3 82.9----
2024-07-24 05:24 pmWNW 5.1 6.0----30.10- 78.4 83.1----
2024-07-24 05:18 pmWSW 5.1 7.0----30.10- 78.4 83.1----
2024-07-24 05:12 pmWSW 6.0 8.0----30.11- 78.1 83.1----
2024-07-24 05:06 pm SW 7.0 8.9----30.10- 78.4 83.1----
2024-07-24 05:00 pm SW 6.0 8.9----30.10-0.02 79.7 83.1----
2024-07-24 04:54 pmSSW 8.0 8.9----30.10- 79.7 83.1----
2024-07-24 04:48 pm S 8.0 9.9----30.10-- 83.1----
2024-07-24 04:42 pm S 8.9 9.9----30.10-- 83.3----
2024-07-24 04:36 pm S 8.9 9.9----30.09-- 83.5----
2024-07-24 04:30 pm S 8.9 9.9----30.09- 80.1 83.8----
2024-07-24 04:24 pm S 8.0 8.9----30.10- 80.4 83.8----
2024-07-24 04:18 pm S 4.1 6.0----30.09- 80.8 83.8----
2024-07-24 04:12 pm S 5.1 6.0----30.10- 81.0 83.7----
2024-07-24 04:06 pmSSW 4.1 4.1----30.10- 81.0 83.7----
2024-07-24 04:00 pmSSW 4.1 4.1----30.11-0.03 80.8 83.7----
2024-07-24 03:54 pm SW 4.1 4.1----30.11- 80.8 83.8----
2024-07-24 03:48 pmWSW 2.9 5.1----30.11- 80.8 83.7----
2024-07-24 03:42 pmWSW 2.9 4.1----30.11- 81.0 83.7----
2024-07-24 03:36 pm SW 4.1 5.1----30.11- 81.1 83.7----
2024-07-24 03:30 pmSSW 4.1 6.0----30.11- 81.3 83.7----
2024-07-24 03:24 pm SW 5.1 7.0----30.11- 81.3 83.5----
2024-07-24 03:18 pm SW 6.0 8.0----30.11- 81.3 83.5----
2024-07-24 03:12 pmWSW 7.0 8.9----30.11- 81.1 83.5----
2024-07-24 03:06 pmWSW 7.0 8.9----30.11- 81.1 83.3----
2024-07-24 03:00 pm SW 8.0 8.9----30.11-0.03 81.1 83.1----
2024-07-24 02:54 pm SW 8.0 8.9----30.11- 81.0 83.1----
2024-07-24 02:48 pm SW 7.0 8.9----30.11- 80.6 82.9----
2024-07-24 02:42 pmWSW 7.0 8.0----30.11- 80.6 82.9----
2024-07-24 02:36 pmWSW 6.0 7.0----30.11- 80.4 82.8----
2024-07-24 02:30 pmWSW 6.0 6.0----30.11- 80.4 82.8----
2024-07-24 02:24 pmWSW 5.1 7.0----30.12- 80.2 82.8----
2024-07-24 02:18 pmWSW 6.0 8.9----30.12- 80.2 82.6----
2024-07-24 02:12 pm SW 8.0 8.9----30.12- 80.1 82.6----
2024-07-24 02:06 pmWSW 7.0 8.0----30.12- 79.7 82.6----
2024-07-24 02:00 pmWSW 7.0 8.0----30.13+0.00 79.7 82.6----
2024-07-24 01:54 pmWSW 7.0 8.9----30.13- 79.7 82.4----
2024-07-24 01:48 pmWSW 8.0 8.0----30.13- 79.7 82.4----
2024-07-24 01:42 pm SW 7.0 8.0----30.13- 79.9 82.4----
2024-07-24 01:36 pm SW 7.0 8.0----30.14- 79.9 82.2----
2024-07-24 01:30 pmWSW 7.0 8.0----30.14- 79.9 82.0----
2024-07-24 01:24 pmWSW 7.0 7.0----30.14- 79.7 82.0----
2024-07-24 01:18 pmWSW 6.0 8.0----30.13- 79.7 82.0----
2024-07-24 01:12 pmWSW 7.0 8.9----30.13- 79.5 81.9----
2024-07-24 01:06 pmWSW 7.0 8.9----30.13- 79.7 81.9----
2024-07-24 01:00 pm W 7.0 8.9----30.14+0.02 79.5 81.7----
2024-07-24 12:54 pmWSW 7.0 9.9----30.14- 79.5 81.7----
2024-07-24 12:48 pmWSW 7.0 8.9----30.14-- 81.7----
2024-07-24 12:42 pm W 7.0 8.9----30.14-- 81.5----
2024-07-24 12:36 pmWSW 6.0 8.0----30.14-- 81.5----
2024-07-24 12:30 pmWSW 7.0 8.9----30.14- 79.2 81.3----
2024-07-24 12:24 pmWSW 8.0 8.9----30.14- 79.0 81.3----
2024-07-24 12:18 pmWSW 8.0 8.9----30.14- 79.0 81.3----
2024-07-24 12:12 pmWSW 8.0 8.0----30.14- 79.0 81.3----
2024-07-24 12:06 pmWSW 7.0 8.9----30.14- 79.0 81.1----
2024-07-24 12:00 pmWSW 7.0 8.9----30.14+0.02 79.0 81.1----
2024-07-24 11:54 am W 7.0 8.9----30.14- 79.0 81.1----
2024-07-24 11:48 am W 7.0 8.9----30.14-- 81.1----
2024-07-24 11:42 am W 8.0 8.9----30.13-- 81.1----
2024-07-24 11:36 am W 6.0 8.0----30.13-- 81.0----
2024-07-24 11:30 am W 8.0 8.9----30.13- 78.6 81.0----
2024-07-24 11:24 am W 8.0 8.9----30.13- 78.6 81.0----
2024-07-24 11:18 am W 7.0 8.9----30.13- 78.4 81.0----
2024-07-24 11:12 am W 8.0 8.9----30.12- 78.3 81.0----
2024-07-24 11:06 am W 8.0 9.9----30.12- 78.3 80.8----
2024-07-24 11:00 am W 8.9 9.9----30.12+0.01 78.1 80.8----
2024-07-24 10:54 am W 8.0 9.9----30.12- 77.9 80.8----
2024-07-24 10:48 am W 8.0 9.9----30.12- 77.9 80.8----
2024-07-24 10:42 am W 8.9 9.9----30.12- 77.7 80.6----
2024-07-24 10:36 am W 8.9 11.1----30.12- 77.5 80.8----
2024-07-24 10:30 am W 8.0 11.1----30.12- 77.5 80.8----
2024-07-24 10:24 am W 8.9 11.1----30.12- 77.9 80.6----
2024-07-24 10:18 am W 8.9 9.9----30.12- 77.7 80.6----
2024-07-24 10:12 amWSW 8.9 11.1----30.12- 77.7 80.8----
2024-07-24 10:06 amWSW 8.0 9.9----30.12- 77.7 80.8----
2024-07-24 10:00 amWSW 8.0 9.9----30.11+0.01 77.7 80.6----
2024-07-24 09:54 amWSW 8.0 9.9----30.11- 77.9 80.6----
2024-07-24 09:48 amWSW 8.9 11.1----30.11-- 80.8----
2024-07-24 09:42 amWSW 9.9 9.9----30.11-- 80.6----
2024-07-24 09:36 am W 8.9 11.1----30.11-- 80.6----
2024-07-24 09:30 amWSW 9.9 13.0----30.11- 78.1 80.6----
2024-07-24 09:24 amWSW 11.1 14.0----30.11- 78.1 80.6----
2024-07-24 09:18 amWSW 12.0 14.0----30.11- 78.1 80.6----
2024-07-24 09:12 amWSW 12.0 14.0----30.11- 78.1 80.6----
2024-07-24 09:06 amWSW 9.9 14.0----30.11- 78.3 80.4----
2024-07-24 09:00 amWSW 11.1 13.0----30.11+0.01 78.3 80.6----
2024-07-24 08:54 am SW 8.9 12.0----30.11- 78.3 80.8----
2024-07-24 08:48 amWSW 9.9 9.9----30.11- 78.3 80.8----
2024-07-24 08:42 amWSW 8.9 12.0----30.11- 78.4 80.8----
2024-07-24 08:36 am SW 9.9 11.1----30.11- 78.4 81.0----
2024-07-24 08:30 am SW 9.9 11.1----30.11- 78.3 81.0----
2024-07-24 08:24 amWSW 9.9 12.0----30.11- 78.6 80.8----
2024-07-24 08:18 am SW 11.1 13.0----30.11- 78.4 81.0----
2024-07-24 08:12 am SW 8.9 11.1----30.11- 78.4 81.0----
2024-07-24 08:06 am SW 9.9 12.0----30.11- 78.4 80.8----
2024-07-24 08:00 am SW 9.9 11.1----30.11+0.03 78.4 80.8----
2024-07-24 07:54 am SW 8.9 12.0----30.11- 78.3 80.8----
2024-07-24 07:48 am SW 8.0 9.9----30.11- 78.6 80.8----
2024-07-24 07:42 am SW 8.9 9.9----30.11- 78.4 80.8----
2024-07-24 07:36 amSSW 8.0 9.9----30.11- 78.4 80.8----
2024-07-24 07:30 am SW 9.9 9.9----30.11- 78.3 80.8----
2024-07-24 07:24 am SW 8.0 9.9----30.11- 78.3 80.8----
2024-07-24 07:18 am SW 8.9 9.9----30.11- 78.3 81.0----
2024-07-24 07:12 am SW 8.9 11.1----30.11- 78.4 81.0----
2024-07-24 07:06 am SW 8.0 11.1----30.11- 78.4 81.1----
2024-07-24 07:00 am SW 8.9 9.9----30.10+0.01 78.4 81.1----
2024-07-24 06:54 am SW 8.0 8.9----30.10- 78.6 81.1----
2024-07-24 06:48 am SW 8.9 12.0----30.10- 78.6 81.1----
2024-07-24 06:42 amWSW 11.1 12.0----30.10- 78.8 81.1----
2024-07-24 06:36 amWSW 11.1 12.0----30.10- 78.8 81.1----
2024-07-24 06:30 am SW 11.1 13.0----30.10- 78.6 81.1----
2024-07-24 06:24 am SW 9.9 12.0----30.10- 78.8 81.1----
2024-07-24 06:18 am SW 9.9 11.1----30.10- 78.6 81.1----
2024-07-24 06:12 amSSW 8.0 9.9----30.10- 78.4 81.1----
2024-07-24 06:06 amSSW 8.0 9.9----30.09- 78.4 81.1----
2024-07-24 06:00 amSSW 8.0 8.9----30.10+0.00 78.3 81.1----
2024-07-24 05:54 amSSW 8.0 8.9----30.10- 78.1 81.3----
2024-07-24 05:48 amSSW 8.0 8.0----30.09- 77.9 81.3----
2024-07-24 05:42 amSSW 7.0 8.0----30.09- 77.9 81.3----
2024-07-24 05:36 amSSW 7.0 9.9----30.09- 77.7 81.3----
2024-07-24 05:30 amSSW 8.9 8.9----30.09- 77.9 81.3----
2024-07-24 05:24 amSSW 8.0 9.9----30.09- 78.1 81.3----
2024-07-24 05:18 amSSW 8.9 8.9----30.09- 78.1 81.3----
2024-07-24 05:12 am S 8.0 8.9----30.09- 78.1 81.3----
2024-07-24 05:06 am S 8.9 9.9----30.09- 78.1 81.3----
2024-07-24 05:00 am S 8.0 8.0----30.09-0.02 77.9 81.3----
2024-07-24 04:54 amSSW 7.0 8.9----30.09- 78.1 81.5----
2024-07-24 04:48 am SW 8.9 9.9----30.09- 78.1 81.3----
2024-07-24 04:42 am SW 8.9 13.0----30.09- 78.3 81.3----
2024-07-24 04:36 am SW 9.9 9.9----30.09- 78.4 81.5----
2024-07-24 04:30 am SW 8.0 11.1----30.09- 78.3 81.5----
2024-07-24 04:24 amSSW 9.9 11.1----30.09- 78.3 81.5----
2024-07-24 04:18 amSSW 8.9 11.1----30.09- 78.4 81.9----
2024-07-24 04:12 am SW 9.9 12.0----30.09- 78.4 82.0----
2024-07-24 04:06 amSSW 9.9 11.1----30.09- 78.8 82.0----
2024-07-24 04:00 am SW 9.9 11.1----30.09-0.01 79.2 81.9----
2024-07-24 03:54 am SW 8.9 9.9----30.09- 79.2 81.9----
2024-07-24 03:48 amWSW 8.0 11.1----30.09- 79.2 81.9----
2024-07-24 03:42 amWSW 9.9 12.0----30.09- 79.2 81.7----
2024-07-24 03:36 am SW 11.1 13.0----30.09- 79.2 81.9----
2024-07-24 03:30 am SW 8.0 13.0----30.09- 78.6 82.2----
2024-07-24 03:24 amSSW 12.0 14.0----30.09- 78.3 82.2----
2024-07-24 03:18 am S 12.0 14.0----30.10- 78.1 82.0----
2024-07-24 03:12 am S 12.0 20.0----30.10- 77.9 82.0----
2024-07-24 03:06 am S 12.0 21.0----30.10- 77.5 81.7----
2024-07-24 03:00 am S 18.1 21.0----30.10-0.02 77.5 81.7----
2024-07-24 02:54 am S 11.1 11.1----30.10- 78.4 81.9----
2024-07-24 02:48 am S 8.0 8.9----30.10- 78.6 81.7----
2024-07-24 02:42 amSSW 7.0 8.0----30.10- 78.4 81.5----
2024-07-24 02:36 am S 7.0 9.9----30.10- 78.6 81.3----
2024-07-24 02:30 am S 8.0 9.9----30.10- 78.8 81.1----
2024-07-24 02:24 am S 8.0 9.9----30.11- 79.0 81.1----
2024-07-24 02:18 am S 9.9 11.1----30.11- 79.2 81.1----
2024-07-24 02:12 am S 11.1 12.0----30.11- 79.2 81.0----
2024-07-24 02:06 am S 9.9 11.1----30.10- 79.3 81.0----
2024-07-24 02:00 amSSE 8.0 8.9----30.10-0.01 79.2 81.0----
2024-07-24 01:54 amSSE 8.0 8.9----30.10- 79.2 81.0----
2024-07-24 01:48 amSSE 8.0 8.9----30.11- 79.3 81.0----
2024-07-24 01:42 amSSE 8.0 8.9----30.11- 79.2 81.0----
2024-07-24 01:36 amSSE 7.0 8.0----30.11- 79.3 81.0----
2024-07-24 01:30 amSSE 6.0 7.0----30.11- 79.3 81.0----
2024-07-24 01:24 amSSE 6.0 8.0----30.11- 79.3 81.1----
2024-07-24 01:18 amSSE 7.0 8.9----30.11- 79.5 81.3----
2024-07-24 01:12 amSSE 7.0-----30.11- 79.3 81.5----
2024-07-24 01:06 amSSE 5.1 6.0----30.11- 79.5 81.7----
2024-07-24 01:00 amSSE 4.1 5.1----30.11+0.00 79.5 81.9----
2024-07-24 12:54 am SE 4.1 6.0----30.10- 79.3 81.9----
2024-07-24 12:48 amSSE 6.0 7.0----30.11- 79.3 81.7----
2024-07-24 12:42 amSSE 6.0 7.0----30.11- 79.5 81.5----
2024-07-24 12:36 amSSE 6.0 7.0----30.11- 79.2 81.5----
2024-07-24 12:30 amSSE 5.1 7.0----30.11- 79.2 81.5----
2024-07-24 12:24 amSSE 6.0 6.0----30.11- 79.2 81.5----
2024-07-24 12:18 amSSE 5.1 6.0----30.11- 79.0 81.5----
2024-07-24 12:12 amSSE 5.1 5.1----30.11- 79.2 81.5----
2024-07-24 12:06 amSSE 4.1 5.1----30.11- 79.2 81.5----
2024-07-24 12:00 am-------30.11+0.01 79.0 81.5----
2024-07-23 11:54 pm-------30.12- 78.8 81.7----
2024-07-23 11:48 pm S 4.1 6.0----30.11- 78.8 81.7----
2024-07-23 11:42 pm S 5.1 6.0----30.12- 78.8 81.9----
2024-07-23 11:36 pm S 5.1 7.0----30.12- 78.8 81.9----
2024-07-23 11:30 pm S 6.0 7.0----30.12- 78.8 82.0----
2024-07-23 11:24 pm S 6.0 7.0----30.12- 78.6 82.4----
2024-07-23 11:18 pm S 6.0 7.0----30.12- 78.6 82.4----
2024-07-23 11:12 pm S 6.0 7.0----30.11- 78.6 82.6----
2024-07-23 11:06 pm S 6.0 7.0----30.11- 78.6 82.8----
2024-07-23 11:00 pm S 6.0 7.0----30.12+0.01 78.4 82.8----
2024-07-23 10:54 pm S 5.1 6.0----30.11- 78.4 82.9----
2024-07-23 10:48 pm S 6.0 8.0----30.11- 78.1 82.9----
2024-07-23 10:42 pm S 8.0 8.0----30.11- 78.1 83.1----
2024-07-23 10:36 pm S 6.0 8.9----30.11- 77.7 83.1----
2024-07-23 10:30 pm S 8.0 8.9----30.11- 77.7 83.3----
2024-07-23 10:24 pm S 8.0 9.9----30.11- 77.4 83.3----
2024-07-23 10:18 pm S 8.0 8.9----30.11- 77.5 83.3----
2024-07-23 10:12 pm S 7.0 8.0----30.10- 77.2 83.3----
2024-07-23 10:06 pm S 7.0 8.0----30.11- 77.2 83.3----
2024-07-23 10:00 pm S 8.0 8.9----30.11+0.00 77.2 83.3----
2024-07-23 09:54 pm S 7.0 8.0----30.11- 77.2 83.3----
2024-07-23 09:48 pm S 6.0 7.0----30.11- 77.5 83.1----
2024-07-23 09:42 pm S 5.1 6.0----30.10- 77.5 82.9----
2024-07-23 09:36 pm S 5.1 7.0----30.10- 77.5 82.9----
2024-07-23 09:30 pmSSW 6.0 6.0----30.10- 77.5 82.8----
2024-07-23 09:24 pmSSW 5.1 7.0----30.10- 77.7 82.8----
2024-07-23 09:18 pm S 7.0 11.1----30.10- 77.7 82.8----
2024-07-23 09:12 pm S 9.9 12.0----30.10- 77.9 82.8----
2024-07-23 09:06 pm S 9.9 12.0----30.10- 77.9 82.8----
2024-07-23 09:00 pm S 9.9 12.0----30.10+0.02 77.9 82.8----
2024-07-23 08:54 pm S 11.1 12.0----30.10- 77.7 82.8----